OZ1IEP-5 Weather Reports


Display with metric or nautical units.
time (UTC)temp
F
wind
direction
speed
MPH
gust
MPH
rain 1hr
in
rain 24hr
in
rain mn
in
humidity
%
barometer
mb
20210510052008 57 163 5.0 12.0 0.00 0.01 0.00 83 1001.7
20210510051007 57 162 6.0 9.0 0.00 0.01 0.00 84 1001.5
20210510050008 56 149 5.0 9.0 0.00 0.01 0.00 84 1001.4
20210510045005 56 148 4.0 12.0 0.00 0.01 0.00 84 1001.3
20210510044005 55 129 7.0 12.0 0.00 0.02 0.00 85 1001.0
20210510043008 55 132 7.0 12.0 0.00 0.02 0.00 85 1000.9
20210510042006 55 141 6.0 12.0 0.00 0.02 0.00 85 1000.8
20210510041005 54 129 7.0 12.0 0.00 0.03 0.00 85 1000.6
20210510040007 54 141 7.0 12.0 0.00 0.03 0.00 85 1000.4
20210510035005 54 126 8.0 12.0 0.00 0.03 0.00 85 1000.4
20210510034005 54 131 9.0 13.0 0.00 0.03 0.00 85 1000.4
20210510033008 53 120 9.0 13.0 0.00 0.04 0.00 84 1000.4
20210510032006 53 128 9.0 12.0 0.00 0.04 0.00 84 1000.4
20210510031005 53 121 9.0 12.0 0.00 0.05 0.00 83 1000.4
20210510030008 54 130 9.0 14.0 0.00 0.06 0.00 83 1000.4
20210510025006 54 132 12.0 14.0 0.00 0.06 0.00 82 1000.4
20210510024005 54 134 9.0 13.0 0.00 0.06 0.00 82 1000.5
20210510023007 54 134 9.0 14.0 0.00 0.07 0.00 81 1000.6
20210510022006 54 126 12.0 16.0 0.00 0.08 0.00 80 1000.5
20210510021005 54 118 10.0 13.0 0.00 0.09 0.00 80 1000.6
20210510020008 55 125 8.0 12.0 0.00 0.09 0.00 80 1000.8
20210510015006 55 132 8.0 12.0 0.00 0.09 0.00 79 1000.9
20210510014007 55 136 6.0 9.0 0.00 0.10 0.00 79 1000.9
20210510013011 55 150 5.0 12.0 0.00 0.11 0.00 78 1000.9
20210510012010 55 131 9.0 13.0 0.00 0.12 0.00 78 1000.7
20210510011008 55 136 10.0 14.0 0.00 0.13 0.00 77 1000.8
20210510010011 56 137 10.0 15.0 0.00 0.13 0.00 76 1000.8
20210510005013 56 138 12.0 18.0 0.00 0.14 0.00 75 1000.7
20210510004015 56 130 13.0 18.0 0.00 0.15 0.00 74 1000.8
20210510003012 57 128 12.0 17.0 0.00 0.16 0.00 73 1000.9
20210510002015 58 130 13.0 17.0 0.00 0.17 0.00 71 1000.8
20210510001010 58 145 10.0 18.0 0.00 0.17 0.00 70 1000.8
20210510000013 59 130 12.0 20.0 0.00 0.17 0.00 69 1000.8
20210509235009 59 143 12.0 20.0 0.00 0.17 0.00 69 1000.7
20210509234006 59 144 12.0 18.0 0.00 0.17 0.00 69 1000.9
20210509233009 59 137 12.0 20.0 0.00 0.17 0.00 68 1000.9
20210509232005 59 143 12.0 20.0 0.00 0.17 0.00 69 1000.9
20210509231005 59 133 14.0 23.0 0.00 0.17 0.00 69 1000.9
20210509230008 59 137 14.0 22.0 0.00 0.17 0.00 71 1000.9
20210509225006 58 141 12.0 20.0 0.00 0.17 0.00 72 1001.1
20210509224005 58 151 12.0 20.0 0.00 0.17 0.00 74 1001.3
20210509223007 58 139 13.0 20.0 0.00 0.17 0.00 76 1001.4
20210509222004 58 141 13.0 20.0 0.00 0.17 0.00 78 1001.4
20210509221005 57 136 11.0 16.0 0.00 0.17 0.00 79 1001.4
20210509220007 57 133 11.0 18.0 0.00 0.17 0.00 80 1001.4
20210509215005 57 131 10.0 17.0 0.00 0.17 0.17 80 1001.5
20210509214005 57 125 13.0 16.0 0.00 0.17 0.17 80 1001.8
20210509213008 57 124 11.0 20.0 0.00 0.17 0.17 80 1001.9
20210509212006 57 134 14.0 18.0 0.00 0.17 0.17 81 1001.9
20210509211006 57 125 10.0 16.0 0.00 0.17 0.17 82 1001.9
20210509210009 57 123 11.0 16.0 0.00 0.17 0.17 82 1002.0
20210509205006 57 123 11.0 15.0 0.00 0.17 0.17 82 1002.4
20210509204006 58 120 7.0 13.0 0.00 0.17 0.17 83 1002.6
20210509203007 58 129 7.0 12.0 0.00 0.17 0.17 83 1002.9
20210509202005 58 130 7.0 12.0 0.00 0.17 0.17 83 1002.7
20210509201006 58 126 8.0 12.0 0.00 0.17 0.17 82 1002.9
20210509200008 59 120 6.0 12.0 0.00 0.17 0.17 83 1002.5
20210509195006 59 110 4.0 10.0 0.00 0.17 0.17 83 1002.5
20210509194006 60 70 2.0 7.0 0.00 0.17 0.17 83 1002.5
20210509193009 60 60 0.0 3.0 0.00 0.17 0.17 83 1003.0
20210509192006 61 60 3.0 3.0 0.00 0.17 0.17 81 1003.3
20210509191005 61 60 2.0 3.0 0.00 0.17 0.17 80 1003.5
20210509190018 61 60 1.0 12.0 0.00 0.17 0.17 79 1003.0
20210509185007 62 97 3.0 6.0 0.00 0.17 0.17 78 1003.6
20210509184005 63 107 2.0 3.0 0.00 0.17 0.17 77 1004.1
20210509183009 63 117 1.0 2.0 0.00 0.17 0.17 74 1004.2
20210509182006 64 117 0.0 3.0 0.00 0.17 0.17 74 1004.5
20210509181005 64 125 1.0 3.0 0.00 0.17 0.17 73 1004.2
20210509180008 64 207 0.0 0.0 0.00 0.17 0.17 72 1004.3
20210509175006 64 207 0.0 3.0 0.00 0.17 0.17 72 1004.4
20210509174006 64 207 2.0 10.0 0.00 0.17 0.17 71 1004.5
20210509173007 65 216 7.0 12.0 0.00 0.17 0.17 70 1004.6
20210509172005 65 171 5.0 8.0 0.00 0.17 0.17 69 1004.2
20210509171006 66 177 5.0 10.0 0.00 0.17 0.17 68 1004.0
20210509170007 66 176 5.0 10.0 0.00 0.17 0.17 67 1003.7
20210509165005 67 174 6.0 13.0 0.00 0.17 0.17 66 1003.5
20210509164005 67 172 6.0 13.0 0.00 0.17 0.17 65 1003.3
20210509163008 67 168 8.0 13.0 0.00 0.17 0.17 65 1003.0
20210509162005 67 166 9.0 17.0 0.00 0.17 0.17 63 1002.9
20210509161004 68 166 10.0 16.0 0.00 0.17 0.17 63 1002.7
20210509160006 68 161 9.0 20.0 0.00 0.17 0.17 62 1002.5
20210509155005 68 178 11.0 18.0 0.00 0.17 0.17 62 1002.7
20210509154005 69 167 9.0 20.0 0.00 0.17 0.17 61 1002.5
20210509153007 69 179 9.0 18.0 0.00 0.17 0.17 61 1002.5
20210509152005 69 185 11.0 17.0 0.00 0.17 0.17 62 1002.5
20210509151005 69 188 12.0 21.0 0.00 0.17 0.17 61 1002.7
20210509150006 69 185 13.0 26.0 0.00 0.17 0.17 60 1003.0
20210509145005 69 177 15.0 20.0 0.00 0.17 0.17 61 1003.0
20210509144005 70 186 7.0 25.0 0.00 0.17 0.17 61 1003.3
20210509143006 70 192 13.0 26.0 0.00 0.17 0.17 60 1003.5
20210509142005 70 190 10.0 25.0 0.00 0.17 0.17 60 1003.5
20210509141004 71 194 15.0 26.0 0.00 0.17 0.17 58 1003.6
20210509140006 71 188 16.0 25.0 0.01 0.17 0.17 58 1003.5
20210509135005 72 195 9.0 22.0 0.01 0.17 0.17 59 1003.6
20210509134005 72 193 9.0 23.0 0.01 0.17 0.17 59 1003.6
20210509133008 72 187 13.0 22.0 0.01 0.17 0.17 60 1003.5
20210509132007 72 175 12.0 23.0 0.01 0.17 0.17 60 1003.5
20210509131012 72 182 12.0 26.0 0.01 0.17 0.17 59 1003.6
20210509130011 72 193 13.0 26.0 0.00 0.16 0.16 58 1003.6
20210509125006 72 193 10.0 21.0 0.00 0.16 0.16 59 1003.7
20210509124008 72 195 11.0 23.0 0.00 0.16 0.16 61 1003.5
20210509123010 72 183 10.0 20.0 0.00 0.16 0.16 62 1003.5
20210509122013 71 180 10.0 25.0 0.00 0.16 0.16 63 1003.5
20210509121009 72 171 9.0 22.0 0.00 0.16 0.16 63 1003.5
20210509120008 71 180 12.0 22.0 0.00 0.16 0.16 64 1003.5
20210509115005 71 184 11.0 21.0 0.00 0.16 0.16 65 1003.5
20210509114006 71 183 15.0 21.0 0.00 0.16 0.16 64 1003.5
20210509113006 71 172 10.0 23.0 0.00 0.16 0.16 66 1003.5
20210509112005 70 178 16.0 24.0 0.00 0.16 0.16 66 1003.5
20210509111005 70 170 13.0 23.0 0.00 0.16 0.16 67 1003.5
20210509110006 70 169 13.0 22.0 0.00 0.16 0.16 68 1003.5
20210509105004 70 182 13.0 20.0 0.00 0.16 0.16 67 1003.5
20210509104005 69 187 13.0 21.0 0.00 0.16 0.16 67 1003.7
20210509103006 69 177 16.0 22.0 0.00 0.16 0.16 67 1003.6
20210509102004 69 182 13.0 20.0 0.00 0.16 0.16 68 1003.8
20210509101004 68 189 8.0 21.0 0.00 0.16 0.16 70 1003.8
20210509100007 68 180 11.0 20.0 0.00 0.16 0.16 70 1004.0
20210509095004 67 185 7.0 17.0 0.00 0.16 0.16 73 1004.0
20210509094005 66 176 9.0 16.0 0.00 0.16 0.16 73 1004.0
20210509093005 66 175 8.0 20.0 0.00 0.16 0.16 73 1004.0
20210509092005 66 185 7.0 18.0 0.00 0.16 0.16 77 1004.0
20210509091004 64 187 9.0 20.0 0.00 0.16 0.16 77 1004.0
20210509090007 64 189 13.0 20.0 0.00 0.16 0.16 77 1003.9
20210509085004 63 183 10.0 18.0 0.00 0.16 0.16 80 1003.8
20210509084005 62 189 7.0 17.0 0.00 0.16 0.16 82 1003.7
20210509083006 61 181 11.0 20.0 0.00 0.16 0.16 84 1003.8
20210509082005 60 210 6.0 17.0 0.00 0.16 0.16 88 1003.9
20210509081005 59 189 7.0 20.0 0.00 0.16 0.16 92 1003.8
20210509080006 57 185 7.0 15.0 0.00 0.16 0.16 93 1003.8
20210509075004 56 164 7.0 15.0 0.00 0.16 0.16 94 1003.8
20210509074004 55 156 7.0 17.0 0.00 0.16 0.16 94 1003.7
20210509073006 54 168 10.0 18.0 0.00 0.16 0.16 95 1003.6
20210509072005 53 175 10.0 20.0 0.00 0.16 0.16 95 1003.6
20210509071005 52 168 10.0 20.0 0.00 0.16 0.16 95 1003.5
20210509070010 51 176 9.0 20.0 0.00 0.16 0.16 95 1003.6
20210509065006 50 172 9.0 16.0 0.00 0.16 0.16 95 1003.6
20210509064007 50 158 10.0 17.0 0.00 0.16 0.16 95 1003.7
20210509063016 49 160 8.0 14.0 0.00 0.16 0.16 95 1003.7
20210509062006 48 152 9.0 14.0 0.00 0.16 0.16 95 1003.8
20210509061006 48 152 6.0 20.0 0.00 0.16 0.16 94 1003.8
20210509060010 47 164 8.0 16.0 0.00 0.16 0.16 94 1003.9
20210509055005 47 157 8.0 15.0 0.00 0.16 0.16 94 1003.7
20210509054006 47 151 9.0 15.0 0.01 0.16 0.16 94 1003.9
20210509053007 46 158 9.0 15.0 0.02 0.16 0.16 94 1003.8